EN

Hourly Weather Larne

Today, 24 November, Tuesday

Time Temperature Precipitation Wind Pressure Humidity
00:00 +10°C° 0 mm 8 mps 753 mmHg 94%
01:00 +10°C° 0.4 mm 8 mps 753 mmHg 93%
02:00 +10°C° 0.4 mm 8 mps 752 mmHg 93%
03:00 +10°C° 0.4 mm 8 mps 752 mmHg 92%
04:00 +10°C° 0.1 mm 8 mps 752 mmHg 91%
05:00 +10°C° 0.1 mm 8 mps 751 mmHg 90%
06:00 +8°C° 0.1 mm 9 mps 751 mmHg 90%
07:00 +9°C° 0.2 mm 8 mps 750 mmHg 90%
08:00 +9°C° 0.2 mm 8 mps 750 mmHg 91%
09:00 +9°C° 0.2 mm 8 mps 749 mmHg 92%
10:00 +9°C° 1.8 mm 8 mps 749 mmHg 92%
11:00 +8°C° 1.8 mm 9 mps 749 mmHg 92%
12:00 +10°C° 1.8 mm 9 mps 748 mmHg 92%
13:00 +7°C° 1.7 mm 8 mps 748 mmHg 92%
14:00 +6°C° 1.7 mm 7 mps 749 mmHg 92%
15:00 +5°C° 1.7 mm 6 mps 749 mmHg 92%
16:00 +6°C° 0.5 mm 5 mps 749 mmHg 91%
17:00 +5°C° 0.5 mm 5 mps 749 mmHg 91%
18:00 +5°C° 0.5 mm 4 mps 749 mmHg 90%
19:00 +5°C° 0.1 mm 4 mps 749 mmHg 90%
20:00 +5°C° 0.1 mm 4 mps 749 mmHg 91%
21:00 +5°C° 0.1 mm 4 mps 750 mmHg 91%
22:00 +5°C° 0 mm 4 mps 750 mmHg 91%
23:00 +4°C° 0 mm 4 mps 750 mmHg 91%

Tomorrow, 25 November, Wednesday

Time Temperature Precipitation Wind Pressure Humidity
00:00 +4°C° 0 mm 4 mps 751 mmHg 91%
01:00 +4°C° 0 mm 4 mps 751 mmHg 92%
02:00 +4°C° 0 mm 4 mps 751 mmHg 92%
03:00 +4°C° 0 mm 4 mps 751 mmHg 93%
04:00 +4°C° 0 mm 4 mps 751 mmHg 93%
05:00 +4°C° 0 mm 4 mps 752 mmHg 93%
06:00 +4°C° 0 mm 3 mps 752 mmHg 94%
07:00 +3°C° 0 mm 4 mps 753 mmHg 93%
08:00 +3°C° 0 mm 4 mps 753 mmHg 93%
09:00 +3°C° 0 mm 4 mps 754 mmHg 92%
10:00 +3°C° 0 mm 5 mps 754 mmHg 89%
11:00 +5°C° 0 mm 5 mps 755 mmHg 86%
12:00 +7°C° 0 mm 5 mps 755 mmHg 84%
13:00 +7°C° 0 mm 5 mps 755 mmHg 85%
14:00 +7°C° 0 mm 6 mps 755 mmHg 85%
15:00 +7°C° 0 mm 6 mps 755 mmHg 86%
16:00 +5°C° 0.1 mm 6 mps 756 mmHg 88%
17:00 +5°C° 0.1 mm 6 mps 756 mmHg 89%
18:00 +4°C° 0.1 mm 6 mps 757 mmHg 91%
19:00 +4°C° 0 mm 7 mps 758 mmHg 90%
20:00 +4°C° 0 mm 7 mps 758 mmHg 90%
21:00 +4°C° 0 mm 7 mps 759 mmHg 89%
22:00 +4°C° 0 mm 6 mps 759 mmHg 90%
23:00 +3°C° 0 mm 6 mps 760 mmHg 91%

Day after tomorrow, 26 November, Thursday

Time Temperature Precipitation Wind Pressure Humidity
00:00 +3°C° 0 mm 6 mps 760 mmHg 92%
01:00 +3°C° 0 mm 6 mps 761 mmHg 91%
02:00 +3°C° 0 mm 5 mps 761 mmHg 91%
03:00 +2°C° 0 mm 5 mps 761 mmHg 91%
04:00 +3°C° 0 mm 4 mps 761 mmHg 90%
05:00 +3°C° 0 mm 4 mps 762 mmHg 90%
06:00 +3°C° 0 mm 4 mps 762 mmHg 89%
07:00 +2°C° 0 mm 3 mps 762 mmHg 89%
08:00 +2°C° 0 mm 3 mps 762 mmHg 89%
09:00 +2°C° 0 mm 3 mps 763 mmHg 88%
10:00 +3°C° 0 mm 3 mps 763 mmHg 87%
11:00 +4°C° 0 mm 3 mps 763 mmHg 85%
12:00 +5°C° 0 mm 3 mps 763 mmHg 84%
13:00 +5°C° 0 mm 3 mps 763 mmHg 86%
14:00 +5°C° 0 mm 3 mps 762 mmHg 88%
15:00 +5°C° 0 mm 3 mps 762 mmHg 90%
16:00 +4°C° 0 mm 3 mps 762 mmHg 91%
17:00 +4°C° 0 mm 3 mps 762 mmHg 91%
18:00 +3°C° 0 mm 3 mps 763 mmHg 92%
19:00 +3°C° 0 mm 3 mps 763 mmHg 91%
20:00 +3°C° 0 mm 3 mps 763 mmHg 90%
21:00 +3°C° 0 mm 3 mps 763 mmHg 90%
22:00 +3°C° 0 mm 3 mps 763 mmHg 90%
23:00 +3°C° 0 mm 3 mps 763 mmHg 91%

27 November, Friday

Time Temperature Precipitation Wind Pressure Humidity
00:00 +3°C° 0 mm 3 mps 763 mmHg 91%
01:00 +3°C° 0 mm 3 mps 763 mmHg 92%
02:00 +2°C° 0 mm 3 mps 763 mmHg 93%
03:00 +2°C° 0 mm 3 mps 762 mmHg 94%
04:00 +2°C° 0 mm 3 mps 762 mmHg 94%
05:00 +2°C° 0 mm 3 mps 762 mmHg 94%
06:00 +2°C° 0 mm 3 mps 762 mmHg 95%
07:00 +2°C° 0 mm 3 mps 762 mmHg 95%
08:00 +2°C° 0 mm 3 mps 762 mmHg 95%
09:00 +2°C° 0 mm 3 mps 762 mmHg 95%
10:00 +2°C° 0 mm 3 mps 762 mmHg 93%
11:00 +3°C° 0 mm 3 mps 762 mmHg 91%
12:00 +4°C° 0 mm 3 mps 762 mmHg 89%
13:00 +5°C° 0 mm 2 mps 762 mmHg 89%
14:00 +5°C° 0 mm 2 mps 761 mmHg 90%
15:00 +5°C° 0 mm 2 mps 761 mmHg 91%
16:00 +4°C° 0 mm 2 mps 761 mmHg 92%
17:00 +4°C° 0 mm 2 mps 761 mmHg 92%
18:00 +3°C° 0 mm 2 mps 761 mmHg 92%
19:00 +3°C° 0 mm 2 mps 761 mmHg 91%
20:00 +3°C° 0 mm 2 mps 761 mmHg 90%
21:00 +3°C° 0 mm 2 mps 761 mmHg 89%
22:00 +3°C° 0 mm 2 mps 761 mmHg 88%
23:00 +3°C° 0 mm 2 mps 760 mmHg 87%

28 November, Saturday

Time Temperature Precipitation Wind Pressure Humidity
00:00 +3°C° 0 mm 2 mps 760 mmHg 86%
01:00 +3°C° 0 mm 3 mps 760 mmHg 86%
02:00 +3°C° 0 mm 3 mps 760 mmHg 86%
03:00 +4°C° 0 mm 3 mps 759 mmHg 87%
04:00 +4°C° 0 mm 4 mps 759 mmHg 87%
05:00 +4°C° 0 mm 4 mps 759 mmHg 88%
06:00 +4°C° 0 mm 4 mps 759 mmHg 89%
07:00 +4°C° 0.2 mm 4 mps 759 mmHg 89%
08:00 +3°C° 0.2 mm 5 mps 759 mmHg 90%
09:00 +3°C° 0.2 mm 5 mps 759 mmHg 91%
10:00 +3°C° 0.2 mm 5 mps 758 mmHg 89%
11:00 +3°C° 0.2 mm 5 mps 758 mmHg 88%
12:00 +3°C° 0.2 mm 5 mps 758 mmHg 86%
13:00 +3°C° 0.2 mm 5 mps 758 mmHg 86%
14:00 +4°C° 0.2 mm 4 mps 758 mmHg 85%
15:00 +4°C° 0.2 mm 4 mps 758 mmHg 84%
16:00 +4°C° 0.1 mm 4 mps 758 mmHg 86%
17:00 +3°C° 0.1 mm 3 mps 758 mmHg 87%
18:00 +3°C° 0.1 mm 3 mps 758 mmHg 88%
19:00 +3°C° 0.1 mm 3 mps 758 mmHg 88%
20:00 +4°C° 0.1 mm 2 mps 758 mmHg 87%
21:00 +4°C° 0.1 mm 2 mps 758 mmHg 87%
22:00 +4°C° 0.1 mm 2 mps 758 mmHg 88%
23:00 +3°C° 0.1 mm 2 mps 758 mmHg 88%

29 November, Sunday

Time Temperature Precipitation Wind Pressure Humidity
00:00 +3°C° 0.1 mm 2 mps 758 mmHg 89%
01:00 +4°C° 0 mm 1 mps 758 mmHg 89%
02:00 +3°C° 0 mm 1 mps 758 mmHg 90%
03:00 +3°C° 0 mm 1 mps 758 mmHg 90%
04:00 +3°C° 0 mm 1 mps 758 mmHg 91%
05:00 +3°C° 0 mm 1 mps 758 mmHg 91%
06:00 +3°C° 0 mm 1 mps 759 mmHg 92%
07:00 +3°C° 0 mm 1 mps 759 mmHg 92%
08:00 +3°C° 0 mm 1 mps 759 mmHg 92%
09:00 +2°C° 0 mm 1 mps 759 mmHg 93%
10:00 +3°C° 0 mm 1 mps 760 mmHg 91%
11:00 +4°C° 0 mm 1 mps 760 mmHg 88%
12:00 +5°C° 0 mm 1 mps 760 mmHg 86%
13:00 +5°C° 0 mm 1 mps 760 mmHg 87%
14:00 +5°C° 0 mm 1 mps 761 mmHg 88%
15:00 +5°C° 0 mm 1 mps 761 mmHg 89%
16:00 +4°C° 0 mm 1 mps 761 mmHg 89%
17:00 +3°C° 0 mm 1 mps 761 mmHg 89%
18:00 +2°C° 0 mm 2 mps 762 mmHg 89%
19:00 +2°C° 0 mm 2 mps 762 mmHg 89%
20:00 +2°C° 0 mm 2 mps 762 mmHg 89%
21:00 +2°C° 0 mm 2 mps 763 mmHg 89%
22:00 +2°C° 0 mm 2 mps 763 mmHg 89%
23:00 +2°C° 0 mm 2 mps 763 mmHg 89%
Show more

We Need Your Consent

Meteoprog and our Service Providers may store and access personal data such as cookies, device identifiers or other similar technologies on your device and process such data to personalise content and ads, as well as provide social media features and to analyse the traffic.

  • Store and/or access information on your device

    Cookies, device identifiers or other information can be stored or accessed on your device for the purposes indicated above.

  • Personalised ads and content, ad and content measurement, audience insights, and products development

    Ads and content can be personalised based on a profile. More data can be added to better personalise ads and content. Ad and content performance can be measured. Insights about the audience who saw the ads and content can be derived. Such data can be used to develop or improve user’s experience, systems and software.

By clicking ‘I Agree’ you will allow the use of indicated cookies, device identifiers, web beacons or other similar technologies. Your settings can be changed in the browser on your device.

For certain purposes, legitimate interests may be relied on, rather than consent. You can read more about this in our Privacy and Cookie Policy.